Regional Weather Roundup
Issued by NWS

Home | Current Version | Previous Version | Graphics & Text | Print | Product List | Glossary On
Versions: 1 2 3 4 5 6 7 8 9 10 11 12 13 14 15 16 17 18 19 20 21 22 23 24 25 26 27 28 29 30 31 32 33 34 35 36 37 38 39 40 41 42 43 44 45 46 47 48 49 50
000
ASUS43 KLOT 240404
RWRIL

ILLINOIS REGIONAL WEATHER ROUNDUP
NATIONAL WEATHER SERVICE CHICAGO/ROMEOVILLE IL
1100 PM CDT TUE MAY 23 2017

NOTE: "FAIR" INDICATES FEW OR NO CLOUDS BELOW 12,000 FEET WITH NO
SIGNIFICANT WEATHER AND/OR OBSTRUCTIONS TO VISIBILITY.

* THESE STATIONS ARE NOT UNDER NWS QUALITY CONTROL. THEY ALSO MAY NOT
  REPORT WEATHER SUCH AS PRECIPITATION OR FOG.

ILZ001-002-007-009-015-016-024-240500-
NORTHWEST ILLINOIS

CITY           SKY/WX    TMP DP  RH WIND       PRES   REMARKS
MOLINE         PTCLDY    53  48  83 W5        29.69F
STERLING*      MOCLDY    54  53  97 E5        29.69F
SAVANNA*       CLOUDY    53  50  89 CALM      29.68F
$$

ILZ003-004-008-010-011-017-018-240500-
NORTH CENTRAL ILLINOIS

CITY           SKY/WX    TMP DP  RH WIND       PRES   REMARKS
ROCKFORD       FOG       51  50  96 CALM      29.71F VSB 1/4
FREEPORT*      CLOUDY    50  50  99 CALM      29.71S FOG
ROCHELLE*      PTCLDY    51  51  99 CALM      29.69F FOG
DE KALB*       CLOUDY    53  53  98 NW3       29.69F FOG
PERU*          MOCLDY    55  53  94 N3        29.69F
$$

ILZ005-006-012>014-019>023-240500-
NORTHEAST ILLINOIS

CITY           SKY/WX    TMP DP  RH WIND       PRES   REMARKS
CHICAGO-OHARE  LGT RAIN  56  53  90 E6        29.67F
CHICAGO-MIDWAY LGT RAIN  57  54  89 NE3       29.67F
AURORA         CLOUDY    55  54  96 CALM      29.68F
LANSING*       CLOUDY    55  55 100 NE5       29.67F
JOLIET*        RAIN      57  56  99 CALM      29.68F
WAUKEGAN       CLOUDY    52  52 100 NE5       29.69S FOG
DUPAGE AIRPORT CLOUDY    55  55 100 CALM      29.67F FOG
KANKAKEE*      CLOUDY    57  55  91 CALM      29.68S
WHEELING       LGT RAIN  55  55 100 CALM      29.70S
MORRIS*        LGT RAIN  56  55  95 CALM      29.67F
ROMEOVILLE*    DRIZZLE   56  56 100 CALM      29.68S
NORTHERLY ISL    N/A     55  52  89 N5          N/A
$$

LMZ740>746-240500-
SOUTHERN LAKE MICHIGAN

STATION/POSITION SKY/WX   TEMP    WIND        PRES    VSBY  WAVE
                          AIR SEA DIR/SP/G                  HT/PER
                          (F)     (DEG/KT/KT) (MB)    (MI)  (FT/S)
SOUTHERN BUOY              50 45  110/  2/  2 1006.6          0
WILMETTE HARBOR            51 53                N/A           1
HARRISON CRIB              55      40/  7/  8   N/A
BURNHAM HARBOR             55     360/  3/  5   N/A
CALUMET HARBOR             54     330/  4/  5 1004.8F
BURNS HARBOR               54      70/  7/  9 1005.8F
MICHIGAN CITY              53      40/  9/ 10   N/A
MICHIGAN CITY 6N           53 53   40/ 10/ 12   N/A           1/ 2
ST. JOSEPH                 55 56   50/ 10/ 12 1005.5F         1
$$

ILZ025>027-034>036-040-047-049-050-058-095>099-240500-
WEST-CENTRAL ILLINOIS

CITY           SKY/WX    TMP DP  RH WIND       PRES   REMARKS
QUINCY         MOCLDY    54  50  86 NW5       29.71S
GALESBURG*     CLOUDY    52  49  89 N6        29.69F
MACOMB*        CLEAR     53  49  87 N5        29.72S
JACKSONVILLE*  CLOUDY    56  54  92 CALM      29.70S
PITTSFIELD*    CLEAR     55  53  93 NW3       29.72S
$$

ILZ028>032-037-038-041>044-048-051>054-059>061-240500-
CENTRAL ILLINOIS

CITY           SKY/WX    TMP DP  RH WIND       PRES   REMARKS
PONTIAC        LGT RAIN  57  56  98 NE5       29.69S
BLOOMINGTON    CLOUDY    56  54  93 NE3       29.69F
DECATUR        CLOUDY    58  56  93 NW6       29.67F
PEORIA         LGT RAIN  56  55  97 CALM      29.69S
LACON*         MOCLDY    54  54 100 CALM      29.68S
LINCOLN*       MOCLDY    56  55  97 CALM      29.68F
SPRINGFIELD    CLOUDY    57  57 100 NW3       29.69F
TAYLORVILLE    CLOUDY    56  55  97 W3        29.69S
$$

ILZ033-039-045-046-055>057-062-063-240500-
EAST-CENTRAL ILLINOIS

CITY           SKY/WX    TMP DP  RH WIND       PRES   REMARKS
CHAMPAIGN      LGT RAIN  59  56  89 N8        29.66F
RANTOUL*       LGT RAIN  58  57  95 N7        29.67F
MATTOON        LGT RAIN  58  58 100 N7        29.66F
PARIS*         CLOUDY    60  55  83 NW9       29.66F
$$

ILZ079-100>102-240500-
SOUTHWEST ILLINOIS

CITY           SKY/WX    TMP DP  RH WIND       PRES   REMARKS
ALTON          CLOUDY    56  55  96 W3        29.70F
BELLEVILLE     CLOUDY    57  55  92 W3        29.70F
CAHOKIA*       CLOUDY    59  55  87 CALM      29.69F
SPARTA*        CLOUDY    58  54  86 NW6       29.71S
$$

ILZ064>066-069>071-074>076-080>082-084>086-088>090-092>094-240500-
SOUTH-CENTRAL ILLINOIS

CITY           SKY/WX    TMP DP  RH WIND       PRES   REMARKS
CARBONDALE     CLOUDY    60  56  86 NW9       29.68F
CAIRO*         PTCLDY    63  58  84 N7        29.67F
EFFINGHAM*     MOCLDY    58  58  99 NW6       29.68F
MARION         CLOUDY    63  61  94 N7        29.68F
MT. VERNON       N/A     59  57  93 CALM      29.68F
CENTRALIA*     CLOUDY    59  56  88 CALM      29.68S
SALEM*         MOCLDY    60  56  89 NW5       29.68S
$$

ILZ067-068-072-073-078-083-087-091-240500-
SOUTHEAST ILLINOIS

CITY           SKY/WX    TMP DP  RH WIND       PRES   REMARKS
LAWRENCEVILLE  CLOUDY    66  56  70 NW12      29.65S
FLORA*         CLOUDY    64  58  83 N6        29.67F
FAIRFIELD*     CLOUDY    63  57  82 NW3       29.66S
HARRISBURG*    CLOUDY    63  58  86 NW9       29.67S
ROBINSON*      CLOUDY    62  56  81 NW7       29.66S
CARMI*         CLOUDY    65  56  74 NW8       29.65F
$$

ABBREVIATIONS USED IN REMARKS
   TC - TEMPERATURE IN CELSIUS
  WCI - WIND CHILL INDEX
   HX - HEAT INDEX
  VSB - VISIBILITY
$$





USA.gov is the U.S. government's official web portal to all federal, state and local government web resources and services.